TimeCDT,TemperatureF,Dew PointF,Humidity,Sea Level PressureIn,VisibilityMPH,Wind Direction,Wind SpeedMPH,Gust SpeedMPH,PrecipitationIn,Events,Conditions,WindDirDegrees,DateUTC
12:53 AM,61.0,54.0,78,30.07,10.0,Calm,Calm,-,N/A,,Clear,0,2013-07-03 05:53:00
1:53 AM,57.9,54.0,87,30.07,10.0,Calm,Calm,-,N/A,,Clear,0,2013-07-03 06:53:00
2:53 AM,60.1,54.0,80,30.06,10.0,Calm,Calm,-,N/A,,Clear,0,2013-07-03 07:53:00
3:53 AM,59.0,53.1,81,30.06,10.0,Calm,Calm,-,N/A,,Clear,0,2013-07-03 08:53:00
4:53 AM,55.9,54.0,93,30.06,10.0,Calm,Calm,-,N/A,,Clear,0,2013-07-03 09:53:00
5:53 AM,57.0,54.0,89,30.07,8.0,Calm,Calm,-,N/A,,Mostly Cloudy,0,2013-07-03 10:53:00
6:53 AM,57.9,55.0,90,30.08,7.0,Calm,Calm,-,N/A,,Partly Cloudy,0,2013-07-03 11:53:00
7:53 AM,66.0,57.0,73,30.09,10.0,Calm,Calm,-,N/A,,Clear,0,2013-07-03 12:53:00
8:53 AM,72.0,55.0,55,30.10,10.0,SW,8.1,-,N/A,,Partly Cloudy,220,2013-07-03 13:53:00
9:53 AM,75.9,55.9,50,30.10,10.0,SW,6.9,-,N/A,,Clear,230,2013-07-03 14:53:00
10:53 AM,78.1,55.9,46,30.10,10.0,WSW,6.9,-,N/A,,Clear,250,2013-07-03 15:53:00
11:53 AM,81.0,55.9,42,30.10,10.0,Variable,5.8,-,N/A,,Clear,0,2013-07-03 16:53:00
12:53 PM,82.0,54.0,38,30.08,10.0,Calm,Calm,-,N/A,,Clear,0,2013-07-03 17:53:00
1:53 PM,80.1,53.1,39,30.06,10.0,West,4.6,-,N/A,,Scattered Clouds,260,2013-07-03 18:53:00
2:53 PM,82.9,53.1,36,30.04,10.0,Variable,3.5,-,N/A,,Clear,0,2013-07-03 19:53:00
3:53 PM,82.9,52.0,34,30.03,10.0,Calm,Calm,-,N/A,,Clear,0,2013-07-03 20:53:00
4:53 PM,84.0,51.1,32,30.01,10.0,Calm,Calm,-,N/A,,Clear,0,2013-07-03 21:53:00
5:53 PM,82.0,52.0,35,30.01,10.0,South,5.8,-,N/A,,Clear,170,2013-07-03 22:53:00
6:53 PM,81.0,54.0,39,30.00,10.0,South,5.8,-,N/A,,Partly Cloudy,190,2013-07-03 23:53:00
7:53 PM,73.9,52.0,46,30.02,10.0,NNE,12.7,19.6,N/A,,Mostly Cloudy,30,2013-07-04 00:53:00
8:53 PM,70.0,53.1,55,30.02,10.0,ENE,4.6,-,N/A,Thunderstorm,Scattered Clouds,60,2013-07-04 01:53:00
9:05 PM,69.8,53.6,56,30.04,10.0,ENE,8.1,-,N/A,,Partly Cloudy,70,2013-07-04 02:05:00
9:53 PM,66.9,55.0,66,30.02,10.0,East,5.8,-,N/A,,Clear,80,2013-07-04 02:53:00
10:53 PM,64.0,55.9,75,30.04,10.0,ESE,5.8,-,N/A,,Clear,120,2013-07-04 03:53:00
11:53 PM,66.0,54.0,65,30.04,10.0,SE,5.8,-,N/A,,Mostly Cloudy,130,2013-07-04 04:53:00